Radiation Dose at Monitoring Post of Fukushima Daini Nuclear Power Station
Date,Time,MP-1(microSv/h),MP-2(microSv/h),MP-3(microSv/h),MP-4(microSv/h),MP-5(microSv/h),MP-6(microSv/h),MP-7(microSv/h),Wind Direction,Wind Velocity(m/s),Rain
2023/01/15,00:00,0.157,0.143,0.223,0.220,0.218,0.126,0.080,north-northwest,7.6,Yes
2023/01/15,00:10,0.157,0.142,0.221,0.219,0.217,0.126,0.080,northwest,7.5,Yes
2023/01/15,00:20,0.157,0.144,0.222,0.218,0.216,0.125,0.080,north-northwest,6.7,Yes
2023/01/15,00:30,0.157,0.142,0.223,0.220,0.216,0.126,0.080,north-northwest,8.1,Yes
2023/01/15,00:40,0.158,0.142,0.222,0.218,0.215,0.125,0.080,northwest,8.1,No
2023/01/15,00:50,0.157,0.143,0.221,0.218,0.217,0.125,0.080,north-northwest,6.8,No
2023/01/15,01:00,0.158,0.143,0.223,0.219,0.217,0.126,0.080,north-northwest,5.9,No
2023/01/15,01:10,0.157,0.142,0.222,0.218,0.216,0.126,0.080,north-northwest,7.1,No
2023/01/15,01:20,0.157,0.142,0.222,0.219,0.217,0.125,0.080,north-northwest,6.9,No
2023/01/15,01:30,0.157,0.142,0.221,0.220,0.216,0.126,0.080,north-northwest,8.1,No
2023/01/15,01:40,0.157,0.141,0.222,0.219,0.217,0.125,0.079,north-northwest,8.1,No
2023/01/15,01:50,0.158,0.142,0.221,0.218,0.216,0.125,0.079,north-northwest,7.9,No
2023/01/15,02:00,0.158,0.143,0.221,0.218,0.217,0.125,0.079,north-northwest,8.1,No
2023/01/15,02:10,0.158,0.142,0.222,0.218,0.215,0.126,0.080,north-northwest,8.1,No
2023/01/15,02:20,0.157,0.141,0.223,0.219,0.215,0.125,0.080,north-northwest,8.2,No
2023/01/15,02:30,0.157,0.142,0.222,0.218,0.215,0.125,0.079,north-northwest,6.8,No
2023/01/15,02:40,0.158,0.142,0.221,0.219,0.215,0.125,0.080,north-northwest,6.1,No
2023/01/15,02:50,0.157,0.141,0.222,0.218,0.216,0.125,0.079,north-northwest,6.9,No
2023/01/15,03:00,0.157,0.141,0.222,0.218,0.215,0.125,0.080,north-northwest,6.7,No
2023/01/15,03:10,0.157,0.143,0.221,0.220,0.216,0.125,0.080,north-northwest,6.6,No
2023/01/15,03:20,0.158,0.144,0.222,0.219,0.216,0.125,0.079,north-northwest,7.4,No
2023/01/15,03:30,0.157,0.143,0.222,0.218,0.216,0.125,0.079,north-northwest,7.1,No
2023/01/15,03:40,0.157,0.143,0.222,0.219,0.214,0.125,0.080,north-northwest,6.3,No
2023/01/15,03:50,0.158,0.141,0.221,0.219,0.215,0.126,0.079,north-northwest,4.7,No
2023/01/15,04:00,0.157,0.142,0.222,0.218,0.214,0.125,0.080,north-northwest,3.8,No
2023/01/15,04:10,0.158,0.143,0.221,0.218,0.215,0.126,0.079,north-northwest,5.4,No
2023/01/15,04:20,0.157,0.142,0.222,0.219,0.216,0.125,0.080,north-northwest,5.2,No
2023/01/15,04:30,0.156,0.142,0.222,0.218,0.215,0.124,0.079,north-northwest,4.7,No
2023/01/15,04:40,0.157,0.141,0.221,0.219,0.216,0.124,0.080,north-northwest,5.3,No
2023/01/15,04:50,0.158,0.142,0.221,0.218,0.215,0.125,0.079,north-northwest,5.9,No
2023/01/15,05:00,0.156,0.142,0.222,0.219,0.215,0.125,0.080,north-northwest,6.2,No
2023/01/15,05:10,0.157,0.142,0.222,0.218,0.216,0.125,0.079,north-northwest,6.1,No
2023/01/15,05:20,0.158,0.142,0.222,0.218,0.215,0.125,0.080,north-northwest,5.3,No
2023/01/15,05:30,0.156,0.142,0.221,0.218,0.215,0.125,0.079,north-northwest,5.8,No
2023/01/15,05:40,0.157,0.141,0.222,0.219,0.215,0.125,0.079,north-northwest,5.6,No
2023/01/15,05:50,0.158,0.143,0.221,0.217,0.216,0.125,0.079,north-northwest,5.4,No
2023/01/15,06:00,0.157,0.142,0.222,0.218,0.217,0.125,0.079,north-northwest,4.9,No
2023/01/15,06:10,0.156,0.142,0.222,0.219,0.215,0.125,0.079,north-northwest,6.2,No
2023/01/15,06:20,0.157,0.142,0.221,0.219,0.215,0.125,0.081,north,5.9,No
2023/01/15,06:30,0.157,0.142,0.221,0.217,0.216,0.125,0.079,north-northwest,5.0,No
2023/01/15,06:40,0.157,0.142,0.223,0.218,0.216,0.125,0.080,northwest,5.6,No
2023/01/15,06:50,0.156,0.142,0.221,0.219,0.215,0.125,0.080,north-northwest,5.4,No
2023/01/15,07:00,0.157,0.141,0.221,0.218,0.217,0.126,0.080,north-northwest,6.7,No
2023/01/15,07:10,0.157,0.143,0.223,0.219,0.216,0.125,0.081,north-northwest,6.4,No
2023/01/15,07:20,0.157,0.142,0.221,0.218,0.214,0.125,0.080,north-northwest,7.0,No
2023/01/15,07:30,0.157,0.142,0.222,0.218,0.216,0.125,0.080,northwest,6.6,No
2023/01/15,07:40,0.158,0.142,0.222,0.219,0.214,0.124,0.079,north-northwest,6.9,No
2023/01/15,07:50,0.157,0.142,0.221,0.218,0.217,0.125,0.079,north-northwest,6.4,No
2023/01/15,08:00,0.158,0.144,0.222,0.219,0.215,0.126,0.080,north-northwest,6.7,No
2023/01/15,08:10,0.157,0.142,0.220,0.218,0.216,0.125,0.079,north-northwest,7.3,No
2023/01/15,08:20,0.157,0.141,0.222,0.218,0.216,0.125,0.080,north-northwest,6.2,No
2023/01/15,08:30,0.157,0.142,0.222,0.220,0.215,0.125,0.079,north-northwest,6.0,No
2023/01/15,08:40,0.157,0.142,0.222,0.218,0.216,0.126,0.079,north-northwest,5.6,No
2023/01/15,08:50,0.156,0.141,0.222,0.217,0.214,0.125,0.079,north-northwest,4.6,No
2023/01/15,09:00,0.157,0.142,0.222,0.218,0.215,0.125,0.080,north-northwest,3.2,No
2023/01/15,09:10,0.158,0.142,0.223,0.218,0.215,0.124,0.078,north,3.9,No
2023/01/15,09:20,0.157,0.142,0.221,0.218,0.216,0.125,0.080,north-northwest,4.8,No
2023/01/15,09:30,0.156,0.142,0.222,0.217,0.215,0.124,0.079,north,6.1,No
2023/01/15,09:40,0.157,0.142,0.222,0.217,0.216,0.125,0.080,north,6.3,No
2023/01/15,09:50,0.157,0.142,0.222,0.219,0.214,0.124,0.079,north-northwest,5.1,No
2023/01/15,10:00,0.158,0.141,0.222,0.217,0.215,0.125,0.079,north,4.1,No
2023/01/15,10:10,0.157,0.141,0.221,0.218,0.217,0.125,0.080,north,5.1,No
2023/01/15,10:20,0.157,0.141,0.221,0.218,0.216,0.125,0.080,north,4.6,No
2023/01/15,10:30,0.157,0.142,0.221,0.217,0.216,0.125,0.080,north,5.7,No
2023/01/15,10:40,0.156,0.142,0.222,0.219,0.216,0.125,0.080,north,4.9,No
2023/01/15,10:50,0.158,0.141,0.221,0.217,0.216,0.126,0.079,north,5.9,No
2023/01/15,11:00,0.157,0.142,0.221,0.218,0.215,0.125,0.079,north-northeast,6.1,No
2023/01/15,11:10,0.158,0.141,0.222,0.218,0.215,0.125,0.080,north,5.9,No
2023/01/15,11:20,0.157,0.142,0.221,0.218,0.215,0.125,0.079,north,7.3,No
2023/01/15,11:30,0.157,0.141,0.220,0.218,0.216,0.126,0.080,north,6.3,No
2023/01/15,11:40,0.156,0.141,0.220,0.219,0.216,0.124,0.079,north,5.8,No
2023/01/15,11:50,0.156,0.142,0.221,0.218,0.215,0.125,0.080,north,7.1,No
2023/01/15,12:00,0.158,0.142,0.223,0.218,0.216,0.124,0.080,north,6.7,No
2023/01/15,12:10,0.157,0.143,0.223,0.219,0.214,0.126,0.081,north-northeast,6.5,No
2023/01/15,12:20,0.158,0.142,0.223,0.218,0.217,0.125,0.080,north-northeast,6.5,No
2023/01/15,12:30,0.157,0.142,0.223,0.220,0.216,0.125,0.079,north-northeast,6.4,No
2023/01/15,12:40,0.157,0.142,0.222,0.218,0.217,0.126,0.079,north-northeast,5.4,No
2023/01/15,12:50,0.157,0.142,0.223,0.219,0.217,0.125,0.080,north-northeast,5.8,No
2023/01/15,13:00,0.158,0.143,0.223,0.220,0.216,0.125,0.079,north,4.9,No
2023/01/15,13:10,0.157,0.143,0.221,0.220,0.217,0.125,0.080,north-northeast,5.6,No
2023/01/15,13:20,0.157,0.142,0.222,0.219,0.216,0.125,0.080,north-northeast,4.6,No
2023/01/15,13:30,0.157,0.142,0.222,0.220,0.217,0.125,0.079,north-northeast,5.2,No
2023/01/15,13:40,0.157,0.143,0.221,0.220,0.217,0.125,0.080,north-northeast,4.3,No
2023/01/15,13:50,0.157,0.142,0.223,0.220,0.217,0.126,0.079,north,3.1,No
2023/01/15,14:00,0.158,0.142,0.223,0.220,0.217,0.125,0.079,north-northwest,4.5,No
2023/01/15,14:10,0.157,0.143,0.222,0.219,0.217,0.125,0.079,north,4.2,Yes
2023/01/15,14:20,0.157,0.142,0.221,0.218,0.215,0.124,0.079,north,3.0,Yes
2023/01/15,14:30,0.157,0.142,0.223,0.218,0.216,0.125,0.080,north-northwest,2.2,Yes
2023/01/15,14:40,0.156,0.142,0.222,0.219,0.214,0.125,0.079,north-northwest,1.9,No
2023/01/15,14:50,0.158,0.142,0.222,0.219,0.215,0.126,0.079,north-northwest,2.2,No
2023/01/15,15:00,0.157,0.141,0.223,0.219,0.218,0.125,0.079,northwest,2.4,Yes
2023/01/15,15:10,0.157,0.142,0.223,0.219,0.216,0.125,0.079,northwest,2.6,No
2023/01/15,15:20,0.158,0.142,0.222,0.220,0.215,0.125,0.079,north-northwest,2.8,Yes
2023/01/15,15:30,0.157,0.142,0.223,0.218,0.217,0.125,0.080,north-northwest,2.0,Yes
2023/01/15,15:40,0.159,0.144,0.223,0.220,0.217,0.127,0.080,north-northwest,2.0,Yes
2023/01/15,15:50,0.158,0.144,0.223,0.220,0.217,0.127,0.082,northwest,2.8,Yes
2023/01/15,16:00,0.159,0.144,0.224,0.221,0.218,0.127,0.082,northwest,3.3,Yes
2023/01/15,16:10,0.159,0.145,0.225,0.221,0.219,0.128,0.083,northwest,4.0,Yes
2023/01/15,16:20,0.160,0.144,0.226,0.222,0.219,0.129,0.084,northwest,4.4,Yes
2023/01/15,16:30,0.161,0.146,0.226,0.223,0.219,0.129,0.084,north-northwest,3.7,Yes
2023/01/15,16:40,0.162,0.146,0.225,0.222,0.219,0.129,0.084,northwest,4.1,Yes
2023/01/15,16:50,0.162,0.147,0.226,0.223,0.220,0.130,0.085,northwest,4.4,Yes
2023/01/15,17:00,0.162,0.147,0.227,0.222,0.220,0.131,0.085,northwest,4.6,Yes
2023/01/15,17:10,0.162,0.147,0.226,0.223,0.219,0.129,0.084,northwest,4.8,Yes
2023/01/15,17:20,0.161,0.148,0.226,0.222,0.219,0.129,0.084,northwest,5.1,Yes
2023/01/15,17:30,0.161,0.145,0.225,0.221,0.218,0.129,0.084,north-northwest,4.7,Yes
2023/01/15,17:40,0.160,0.145,0.226,0.221,0.218,0.129,0.084,northwest,4.6,Yes
2023/01/15,17:50,0.162,0.145,0.225,0.221,0.219,0.128,0.083,northwest,5.2,Yes
2023/01/15,18:00,0.160,0.145,0.225,0.222,0.219,0.128,0.083,northwest,5.2,Yes
2023/01/15,18:10,0.160,0.144,0.224,0.221,0.218,0.128,0.083,northwest,4.8,Yes
2023/01/15,18:20,0.160,0.145,0.225,0.221,0.218,0.128,0.082,northwest,4.9,Yes
2023/01/15,18:30,0.161,0.145,0.224,0.220,0.218,0.128,0.083,northwest,4.9,Yes
2023/01/15,18:40,0.160,0.145,0.225,0.222,0.217,0.127,0.081,northwest,4.7,Yes
2023/01/15,18:50,0.160,0.145,0.224,0.221,0.216,0.129,0.083,northwest,5.1,Yes
2023/01/15,19:00,0.161,0.146,0.225,0.222,0.218,0.129,0.082,northwest,5.3,Yes
2023/01/15,19:10,0.162,0.146,0.225,0.222,0.218,0.129,0.083,northwest,5.3,Yes
2023/01/15,19:20,0.161,0.147,0.225,0.222,0.218,0.129,0.083,northwest,5.0,Yes
2023/01/15,19:30,0.164,0.147,0.226,0.223,0.221,0.130,0.085,northwest,4.6,Yes
2023/01/15,19:40,0.163,0.147,0.227,0.223,0.221,0.132,0.085,northwest,4.1,Yes
2023/01/15,19:50,0.163,0.148,0.226,0.223,0.220,0.132,0.086,northwest,4.3,Yes
2023/01/15,20:00,0.162,0.146,0.227,0.224,0.221,0.131,0.085,west-northwest,3.2,Yes
2023/01/15,20:10,0.163,0.147,0.226,0.224,0.220,0.131,0.086,west,2.1,Yes
2023/01/15,20:20,0.162,0.148,0.228,0.225,0.220,0.132,0.086,northwest,3.1,Yes
2023/01/15,20:30,0.164,0.149,0.228,0.225,0.220,0.133,0.086,west-northwest,2.9,Yes
2023/01/15,20:40,0.165,0.150,0.228,0.223,0.221,0.132,0.087,northwest,3.4,Yes
2023/01/15,20:50,0.164,0.149,0.227,0.223,0.220,0.132,0.087,northwest,4.0,Yes
2023/01/15,21:00,0.163,0.149,0.227,0.225,0.221,0.133,0.087,northwest,4.2,Yes
2023/01/15,21:10,0.164,0.150,0.229,0.223,0.221,0.133,0.087,north-northwest,4.8,Yes
2023/01/15,21:20,0.165,0.150,0.227,0.223,0.221,0.134,0.088,northwest,4.5,Yes
2023/01/15,21:30,0.164,0.150,0.229,0.226,0.223,0.135,0.089,northwest,4.1,Yes
2023/01/15,21:40,0.166,0.151,0.230,0.227,0.223,0.136,0.091,north-northwest,3.9,Yes
2023/01/15,21:50,0.167,0.152,0.231,0.227,0.223,0.137,0.092,-,CALM,Yes
2023/01/15,22:00,0.167,0.153,0.231,0.228,0.223,0.138,0.093,-,CALM,Yes
2023/01/15,22:10,0.170,0.155,0.231,0.229,0.224,0.139,0.092,north-northwest,3.0,Yes
2023/01/15,22:20,0.169,0.155,0.233,0.228,0.224,0.138,0.093,north-northwest,3.6,Yes
2023/01/15,22:30,0.170,0.155,0.234,0.228,0.224,0.139,0.094,northwest,3.2,Yes
2023/01/15,22:40,0.169,0.155,0.232,0.228,0.224,0.138,0.093,northwest,3.4,Yes
2023/01/15,22:50,0.168,0.155,0.231,0.229,0.224,0.139,0.094,northwest,3.8,Yes
2023/01/15,23:00,0.168,0.154,0.231,0.227,0.224,0.138,0.094,northwest,4.3,Yes
2023/01/15,23:10,0.169,0.155,0.231,0.227,0.226,0.139,0.094,west-northwest,4.5,Yes
2023/01/15,23:20,0.170,0.156,0.232,0.227,0.224,0.139,0.095,west,6.7,Yes
2023/01/15,23:30,0.170,0.155,0.232,0.228,0.224,0.140,0.094,northwest,4.4,Yes
2023/01/15,23:40,0.170,0.155,0.232,0.228,0.224,0.140,0.095,northwest,4.2,Yes
2023/01/15,23:50,0.171,0.155,0.231,0.228,0.225,0.140,0.094,northwest,4.4,Yes
